Starlink 5030

operational
NORAD ID: 55418 Int'l Des: 2023-014 Owner: SPXS Country: US Constellation: starlink
LEOCIRCULAR

关于 Starlink 5030

正在加载描述...

实时位置

正在加载3D地球...

即将过境

高度历史

Altitude vs Time

uPlot chart will show altitude changes over time

两行轨道根数

1 55418U 23014AD 25353.25533558 -.00000484 00000-0 -32779-4 0 9997
2 55418 70.0000 287.2680 0002789 270.5763 89.5077 14.98327671159516
Epoch: Dec 19, 2025 • Age: 15 hours

当前状态

高度 577.5 km
速度 7.57 km/s
星下点 -16.59°S, 61.72°E
发射日期 Jan 31, 2023
运行时间 2.8 years
类型 internet

技术详情

分类 Payload
质量 305.00 kg
干质量 290.00 kg
总质量 305.00 kg
长度 0.20 m
直径 2.80 m
跨度 9.00 m
形状 Box + pan
制造商 SPXS
平台类型 Starlink
阶段状态 In Orbit
所有者/国家 SPXS/US

大型星座

Loading constellations...